Tracking 19286 objects as of 18-Nov-2018
HD Live streaming from Space Station
objects crossing your sky now

RADUGA 25

Track RADUGA 25 now!
RADUGA 25 is classified as:


NORAD ID: 20499
Int'l Code: 1990-016A
Perigee: 35,800.8 km
Apogee: 35,827.0 km
Inclination: 14.8 °
Period: 1,437.1 minutes
Semi major axis: 42184 km
RCS: 7.9432 m2 (large)
Launch date: February 15, 1990
Source: Commonwealth of Independent States (former USSR) (CIS)
Launch site: TYURATAM MISSILE AND SPACE COMPLEX (TTMTR)
aabbcc
Your satellite tracking list
Your tracking list is empty




NASA's NSSDC Master Catalog

Two Line Element Set (TLE):
1 20499U 90016A   18321.34848802 -.00000296 +00000-0 +00000-0 0  9990
2 20499 014.8125 357.5806 0003105 287.5228 198.3979 01.00200092105145
Source of the keplerian elements: AFSPC